Overview Statistics Trail Chart Weather Telemetry Raw packets
 

This is the latest recevied weather packets stored in our database for station/object EA1GEC-10. If no packets are shown the sender has not sent any weather packets the latest 10 day(s).

<< 1 2 3 4 5 6 7 >>
Time Temp. Humidity Pressure Rain* Wind** Luminosity Snow
1777802884 15.56° C 66% 1020.3 hPa - - - -
1777801984 16.11° C 66% 1020.2 hPa - - - -
1777801083 15° C 68% 1020.2 hPa - - - -
1777800183 15° C 68% 1020.3 hPa - - - -
1777799283 15° C 68% 1020.2 hPa - - - -
1777798383 16.11° C 68% 1020.3 hPa - - - -
1777797483 15.56° C 69% 1020.4 hPa - - - -
1777796583 15.56° C 70% 1020.5 hPa - - - -
1777795683 15° C 72% 1020.5 hPa - - - -
1777794783 15° C 74% 1020.5 hPa - - - -
1777793883 14.44° C 75% 1020.4 hPa - - - -
1777792983 14.44° C 76% 1020.3 hPa - - - -
1777792083 13.89° C 78% 1020.3 hPa - - - -
1777791192 13.33° C 80% 1020.4 hPa - - - -
1777790613 13.89° C 81% 1020.3 hPa - - - -
1777789713 13.89° C 82% 1020.3 hPa - - - -
1777788813 13.89° C 82% 1020.2 hPa - - - -
1777787913 13.89° C 83% 1019.9 hPa - - - -
1777787013 13.89° C 83% 1020 hPa - - - -
1777786140 13.89° C 83% 1019.9 hPa - - - -
1777784313 13.89° C 83% 1020.1 hPa - - - -
1777783413 13.89° C 84% 1020.1 hPa - - - -
1777782513 13.89° C 84% 1020.1 hPa - - - -
1777781613 13.89° C 83% 1020 hPa - - - -
1777780713 13.89° C 84% 1020.2 hPa - - - -

* Rain since midnight (hover to see other rain measurements)
** Current wind speed in m/s (hover to see current wind gust speed)